This demonstration page uses our WeatherBlox Daily Observations layout. Learn more.

Left ArrowRight Arrow

Hourly Observations for March 17, 2020

Temp ( °F °C ) Dew Point ( °F °C ) Humidity (%) Winds ( mph kmh ) Pressure ( in mb ) Visibility ( mi km ) Precip ( " mm )
12:56 am 00:56 Cloudy 40 4.5 34 1.2 79 79 NNW 9 15 30.30 1026 10 16 0.00 0.00
1:56 am 01:56 Cloudy 39 4 34 0.9 80 80 N 6 9 30.32 1027 10 16 0.00 0.00
2:26 am 02:26 Cloudy 37 3 34 1 87 87 N 5 7 30.33 1027 10 16 0.00 0.00
2:56 am 02:56 Cloudy 38 3.2 33 0.8 84 84 NNW 5 7 30.32 1027 10 16 0.00 0.00
3:56 am 03:56 Clear 31 -0.6 28 -2.2 89 89 N 5 7 30.32 1027 10 16 0.00 0.00
4:56 am 04:56 Clear 29 -1.4 27 -2.7 91 91 NNW 5 7 30.32 1027 10 16 0.00 0.00
5:56 am 05:56 Clear 29 -1.7 26 -3.3 89 89 WNW 3 6 30.34 1028 10 16 0.00 0.00
6:56 am 06:56 Clear 29 -1.5 26 -3.1 89 89 NW 3 6 30.35 1028 10 16 0.00 0.00
7:56 am 07:56 Sunny 29 -1.7 27 -3 91 91 NW 5 7 30.37 1029 10 16 0.00 0.00
8:56 am 08:56 Sunny 33 0.3 29 -1.5 88 88 Calm 30.38 1029 10 16 0.00 0.00
9:56 am 09:56 Sunny 37 3 32 -0.1 80 80 NE 5 7 30.39 1029 10 16 0.00 0.00
10:56 am 10:56 Mostly Sunny 41 5.1 30 -1.2 64 64 E 5 7 30.37 1028 10 16 0.00 0.00
11:56 am 11:56 Sunny 45 7.1 30 -1.3 56 56 E 9 15 30.31 1027 10 16 0.00 0.00
12:56 pm 12:56 Sunny 47 8.4 29 -1.7 49 49 E 8 13 30.28 1026 10 16 0.00 0.00
1:56 pm 13:56 Mostly Cloudy 48 8.9 31 -0.7 51 51 SSE 7 11 30.27 1025 10 16 0.00 0.00
2:56 pm 14:56 Mostly Cloudy 49 9.5 33 0.7 55 55 S 12 19 30.23 1024 10 16 0.00 0.00
3:56 pm 15:56 Mostly Cloudy 49 9.6 35 1.7 58 58 SE 12 19 30.19 1023 10 16 0.00 0.00
4:56 pm 16:56 Cloudy 48 9 35 1.6 60 60 S 12 19 30.19 1022 10 16 0.00 0.00
5:56 pm 17:56 Cloudy 47 8.3 35 1.7 63 63 SSE 10 17 30.18 1022 10 16 0.00 0.00
6:56 pm 18:56 Cloudy 46 7.6 36 2.1 68 68 SE 10 17 30.17 1022 10 16 0.00 0.00
7:56 pm 19:56 Cloudy 45 7.3 37 3 74 74 SSE 9 15 30.15 1021 10 16 0.00 0.00
8:56 pm 20:56 Cloudy with Drizzle 45 7 38 3.4 78 78 SE 9 15 30.14 1021 10 16 0.00 0.00
9:56 pm 21:56 Cloudy 44 6.7 39 3.8 82 82 SE 10 17 30.11 1020 10 16 0.00 0.00
10:56 pm 22:56 Cloudy 44 6.5 39 4 84 84 ESE 8 13 30.09 1019 10 16 0.00 0.00
11:45 pm 23:45 Cloudy 43 6 39 4 87 87 ESE 6 9 30.09 1019 10 16 0.00 0.00
11:56 pm 23:56 Cloudy 44 6.4 40 4.2 86 86 SE 5 7 30.10 1019 10 16 0.00 0.00

Powered by AerisWeather